WESTFORD NEEDLES, 2375

Orbit data source: Space-Track

WESTFORD NEEDLES, 2375 is space debris in LEO originally from a launch on Thu, 09 May 1963 UTC launched from the Air Force Western Test Range (AFWTR). Debris objects in space refer to the collection of defunct objects orbiting the Earth. Examples of debris include non-operational satellites, rocket bodies, and fragments generated from explosions, collisions, or faulty payload assembly.

Loading next visibility...
Identifier
2375, 1963-014W
Orbit
LEO
Country
Flag of USUS
Related business
Manufacturer
Unknown
Mission
Spacecraft
Bus & Motor
Unknown
Mass
Unknown
Launch date (UTC)
1963-05-09 (63 years ago)
Launch vehicle
Unknown
Launch site
Air Force Western Test Range (AFWTR)
Object type
Payload
Rocket body
Debris
Shape & HBR
Unknown shape, 0.3 m
Radar Cross Section
Medium (>0.1 m² and <1 m²)

Expand to show TLE details & history
Last TLE update: 5 hours ago

TLE from 5 hours ago
0 WESTFORD NEEDLES
1 02375U 63014W   26036.31320194  .00000231  00000-0  25146-1 0  9996
2 02375  86.5212  70.0579 1639036 320.5503  28.6529  8.74958561359896
Epoch: 2026-02-05T07:31Z
TLE epoch observation values (Epoch: 2026-02-05T07:31:00.647Z)
Latitude
-0.00003°
Longitude
-178.16202°
Altitude
2,218.721 km
Speed
7.259 km/s
True Right ascension
04h 40m 13s
True Declination
0° 00' 00"
Sunlit
Object was in daylight at epoch
Visualization orbit readout
Latitude
Unknown
Longitude
Unknown
Altitude
Unknown
Speed
Unknown
Apparent Right ascension
Unknown
Apparent Declination
Unknown
Sunlit
N/A
Visualization observer readout
Local Sidereal Time
14:08:09
Azimuth
Unknown
Elevation
Unknown
Doppler factor
Unknown
Orbital elements
Apogee altitude
5,197.936 km
Perigee altitude
1,937.597 km
Semi-major axis
9,945.903 km
Eccentricity
0.1639
Inclination
86.5212°
RAAN
70.0579°
Arg. of periapsis
320.5503°
True anomaly
39.54421°
Mean anomaly
28.6529°
Eccentric anomaly
33.88921°
Mean motion
2.18815 °/min
Orbital period
164.52 mins
BSTAR
0.025146
Loading maneuver chart data...
Computing Atmospheric mass density...

Documentation

Showing up to 5 results
|